Regional Weather Roundup
Issued by NWS

Home | Current Version | Previous Version | Text Only | Print | Product List | Glossary Off
Versions: 1 2 3 4 5 6 7 8 9 10 11 12 13 14 15 16 17 18 19 20 21 22 23 24 25 26 27 28 29 30 31 32 33 34 35 36 37 38 39 40 41 42 43 44 45 46 47 48 49 50

000
ASUS43 KMPX 261901
RWRMN
WEATHER ROUNDUP FOR MINNESOTA
NATIONAL WEATHER SERVICE TWIN CITIES/CHANHASSEN MN
200 PM CDT MON SEP 26 2016


NOTE: "FAIR" INDICATES FEW OR NO CLOUDS BELOW 12,000 FEET WITH NO
SIGNIFICANT WEATHER AND/OR OBSTRUCTIONS TO VISIBILITY. N/A MEANS
CURRENT SKY AND/OR WEATHER CONDITIONS ARE NOT AVAILABLE.

MNZ060>063-068>070-262000-
   Twin Cities Metro

CITY           SKY/WX    TMP DP  RH WIND       PRES   REMARKS
TWIN CITIES    MOSUNNY   62  39  42 NW18G32   29.91F
ST PAUL        MOSUNNY   61  38  42 W25G35    29.91F
CRYSTAL        MOSUNNY   64  37  36 W21G33    29.90F
LAKEVILLE      SUNNY     63  37  39 NW23G32   29.92F
EDEN PRAIRIE   SUNNY     65  36  34 W17G32    29.91F
LAKEVILLE      SUNNY     63  37  39 NW23G32   29.92F
SOUTH ST PAUL  MOSUNNY   63  37  37 W17G28    29.91S
LAKE ELMO      PTSUNNY   59  41  51 W16G26    29.91F
$$
MNZ001>005-007-008-013>017-022>024-027-028-262000-
   Northwest Minnesota

CITY           SKY/WX    TMP DP  RH WIND       PRES   REMARKS
BEMIDJI        CLOUDY    56  41  55 NW29G36   29.84F
HALLOCK        CLOUDY    57  45  62 NW18      29.89F
ROSEAU         CLOUDY    55  46  71 NW20      29.82S
WARROAD        CLOUDY    54  46  76 W22G31    29.79R
THIEF RVR FALL CLOUDY    56  41  57 NW24G30   29.90S
CROOKSTON      MOSUNNY   61  43  51 NW20G28   29.92S
FOSSTON        PTSUNNY   57  39  51 NW23G36   29.90S
DETROIT LAKES  SUNNY     59  34  38 NW28G37   29.93S
MOORHEAD       SUNNY     64  30  27 NW31G41   29.94F
PARK RAPIDS    PTSUNNY   58  35  42 NW30G38   29.87S
MAHNOMEN       CLOUDY    57  40  51 NW24G31   29.91R
$$
MNZ006-009>011-018-025>026-262000-
   North Central Minnesota

CITY           SKY/WX    TMP DP  RH WIND       PRES   REMARKS
BAUDETTE       CLOUDY    53  44  71 NW21G32   29.74S
FLAG ISLAND    CLOUDY    52  46  82 NW26G35   29.73R
INTL FALLS     LGT RAIN  50  47  89 W15G26    29.66F
WASKISH        CLOUDY    55  45  67 W23G33    29.78S
BIG FORK       CLOUDY    52  45  76 W8        29.75S
GRAND RAPIDS   LGT RAIN  53  41  63 W12       29.79S
ORR            DRIZZLE   48  45  87 W15G24    29.66R
COOK           LGT RAIN  48  46  93 W15G25    29.69S
WALKER         MOCLDY    57  39  51 NW16G36   29.83F
$$
MNZ012-019>021-037-262000-
   Northeast Minnesota

CITY           SKY/WX    TMP DP  RH WIND       PRES   REMARKS
DULUTH         LGT RAIN  51  45  79 W21G31    29.72S
ELY            LGT RAIN  48  46  93 W20G29    29.62S
HIBBING        LGT RAIN  50  42  74 W15G23    29.72S
EVELETH        LGT RAIN  50  45  81 W18G26    29.71S
DULUTH HARBOR  DRIZZLE   55  46  71 W17G25    29.74S
TWO HARBORS    DRIZZLE   54  48  82 W15G24    29.67S
SILVER BAY     CLOUDY    52  46  82 W9G16     29.63R
GRAND MARAIS     N/A     53  50  89 W8G16     29.54R
G MARAIS ARPRT RAIN      48  43  81 W12G23    29.53S
$$
MNZ029>031-032-039>041-046>048-054>057-064-262000-
   West Central Minnesota

CITY           SKY/WX    TMP DP  RH WIND       PRES   REMARKS
FERGUS FALLS   SUNNY     63  32  31 NW26G35   29.96F
MORRIS         SUNNY     66  34  30 NW33G41   29.96F
ALEXANDRIA     SUNNY     63  30  28 NW26G39   29.95F
ELBOW LAKE     FAIR      62  31  31 NW23G37   29.97F
GLENWOOD       SUNNY     63  30  29 W31G38    29.94F
BENSON         SUNNY     66  28  24 NW24G40   29.98F
MADISON          N/A     70  34  26 W18G33    30.02F
WILLMAR        FAIR      66  32  28 NW29G39   29.98F
$$
MNZ033>034-036-042>043-049>051-058-059-262000-
   Central Minnesota

CITY           SKY/WX    TMP DP  RH WIND       PRES   REMARKS
ST CLOUD       MOSUNNY   62  39  42 NW30G41   29.90F
SAUK CENTRE    FAIR      61  36  39 W21G31    29.92F
PAYNESVILLE    SUNNY     63  31  29 W25G39    29.94F
AITKIN         PTSUNNY   61  36  39 W12G25    29.81F
PINE RIVER     CLOUDY    57  39  51 W15G26    29.88S
BRAINERD       CLOUDY    60  37  42 NW20G32   29.86S
STAPLES        MOSUNNY   61  34  36 NW31G39   29.88F
LONG PRAIRIE   FAIR      61  36  39 SW25      29.92F
LITTLE FALLS   MOSUNNY   59  34  38 W18G29    29.89F
LITCHFIELD     SUNNY     64  36  34 W21G30    29.94F
BUFFALO        SUNNY     62  36  37 W24G33    29.93F
MAPLE LAKE     SUNNY     63  39  41 W20G26    29.93F
HUTCHINSON     SUNNY     66  34  30 W18G33    29.96F
$$
MNZ037-044-045-052-053-262000-
   East Central Minnesota

CITY           SKY/WX    TMP DP  RH WIND       PRES   REMARKS
PRINCETON      PTSUNNY   63  39  42 W24G32    29.88F
MORA           CLOUDY    57  37  47 NW18G25   29.86F
CAMBRIDGE      PTSUNNY   63  45  51 W18G29    29.85F
MOOSE LAKE     CLOUDY    57  37  47 W16G25    29.78S
HINCKLEY       CLOUDY    59  41  51 W16G28    29.83S
CLOQUET        CLOUDY    54  39  58 W15       29.75F
MCGREGOR       PTSUNNY   57  37  47 W18G29    29.80F
$$
MNZ071>073-080-081-089-090-097-098-262000-
   Southwest Minnesota

CITY           SKY/WX    TMP DP  RH WIND       PRES   REMARKS
MONTEVIDEO     SUNNY     68  34  28 N24G33    30.02F
GRANITE FALLS  SUNNY     68  35  29 W22G33    30.03F
CANBY          SUNNY     66  35  32 NW21G36   30.05F
MARSHALL       SUNNY     66  34  30 NW23G36   30.03F
REDWOOD FALLS  SUNNY     67  31  26 NW28G39   29.99F
OLIVIA         SUNNY     68  34  28 NW21G35   29.97F
PIPESTONE      SUNNY     66  25  20 NW16G29   30.08F
WINDOM         SUNNY     66  30  26 NW23G33   30.04F
WORTHINGTON    SUNNY     65  35  33 NW28G35   30.07F
JACKSON        SUNNY     66  25  20 W15G31    30.06F
TRACY          SUNNY     67  34  30 W13G29    30.04F
$$
MNZ065>067-074>077-082>085-091>093-262000-
   South Central Minnesota

CITY           SKY/WX    TMP DP  RH WIND       PRES   REMARKS
ST JAMES       SUNNY     66  32  28 W22G32    30.02F
FAIRMONT       SUNNY     65  34  31 W21G32    30.04S
GLENCOE        SUNNY     65  36  33 W25G37    29.95S
OWATONNA       SUNNY     66  30  26 W22G36    29.95F
WASECA         SUNNY     64  32  29 W24G36    29.98F
ALBERT LEA     SUNNY     64  34  32 W16G32    29.98F
$$
MNZ078>079-086>088-094>096-262000-
   Southeast Minnesota

CITY           SKY/WX    TMP DP  RH WIND       PRES   REMARKS
ROCHESTER      SUNNY     65  34  31 W26G40    29.93F
RED WING       MOSUNNY   64  36  34 NW24G32   29.89F
DODGE CENTER   MOSUNNY   64  30  27 W25G37    29.94F
WINONA         MOSUNNY   64  36  34 NW18G29   29.89F
AUSTIN         SUNNY     64  30  27 W24G37    29.97F
PRESTON        SUNNY     63  33  32 W28G41    29.95S
$$
ABBREVIATIONS USED IN REMARKS
   TC - TEMPERATURES IN CELSIUS
  WCI - WIND CHILL INDEX
   HX - HEAT INDEX
  VSB - VISIBILITY
$$



USA.gov is the U.S. government's official web portal to all federal, state and local government web resources and services.